[[{"header":{"parameterUnit":"m.s-1","parameterCategory":1,"la1":30.2992,"la2":30.254,"lo1":-89.0895,"lo2":-89.0443,"dy":0.0025,"dx":0.0025,"nx":19,"ny":19,"refTime":"2026-04-29T03:00:00:Z","depth":0,"parameterNumber":2,"parameterNumberName":"U-component_of_WINDS"},"data":[0,0,0,1.807,1.8072,1.8176,1.8177,1.8294,1.8295,0,0,0,0,0,0,0,0,0,0,0,1.8028,1.8028,1.807,1.8072,1.8176,1.8177,1.8294,1.8295,0,0,0,0,0,0,0,0,0,0,0,1.8027,1.8028,1.8028,1.8072,1.8176,1.8177,1.8294,1.8221,0,0,0,0,0,0,0,0,0,0,1.8122,1.8072,1.8028,1.8028,1.8073,1.8176,1.8177,1.8218,1.8225,1.8239,0,1.8247,0,1.8273,1.8302,1.8302,0,0,0,1.8081,1.8065,1.8104,1.8028,1.8074,1.8176,1.8132,1.8222,1.8231,1.8249,1.8249,1.8254,1.8275,1.8302,1.8303,1.8351,1.8351,0,0,1.8075,1.804,1.8098,1.8109,1.8091,1.8128,1.8135,1.8228,1.8226,1.825,1.8257,1.8277,1.8303,1.8304,1.8351,1.8351,0,0,0,1.8052,1.8036,1.8073,1.8104,1.8124,1.8131,1.8139,1.8222,1.8236,1.8259,1.8278,1.8303,1.8305,1.8352,1.8351,1.8308,0,0,0,1.8049,1.8023,1.807,1.805,1.8122,1.8174,1.813,1.823,1.8242,1.8277,1.8303,1.8306,1.8352,1.8351,1.831,1.8293,0,0,0,1.8025,1.802,1.8032,1.8048,1.8091,1.8173,1.8193,1.8233,1.8253,1.8302,1.8306,1.8352,1.8351,1.8311,1.8296,1.8296,0,0,0,1.7988,1.7992,1.803,1.8042,1.809,1.8146,1.8193,1.8237,1.8273,1.8304,1.8352,1.8351,1.8312,1.8298,1.8297,1.8288,1.8282,0,0,1.7974,1.7989,1.7999,1.8036,1.8076,1.8132,1.8167,1.8233,1.827,1.8322,1.8324,1.8309,1.8296,1.8296,1.8259,1.8253,0,0,0,1.7982,1.7989,1.8007,1.804,1.8091,1.8134,1.8199,1.8224,1.827,1.8289,1.8311,1.8304,1.8305,1.8303,1.8298,1.8301,1.8349,1.8349,1.8349,1.791,1.7957,1.7977,1.8037,1.8069,1.8137,1.8167,1.8213,1.8251,1.8255,1.827,1.8242,1.8237,1.8234,1.8237,1.827,1.827,1.827,1.827,1.7892,1.7908,1.796,1.7997,1.8047,1.808,1.8146,1.8172,1.821,1.8234,1.8237,1.8258,1.8226,1.8232,1.8267,1.8268,1.8268,1.8268,1.8269,1.7849,1.7865,1.7896,1.795,1.7987,1.8049,1.8082,1.8127,1.817,1.8174,1.8195,1.8195,1.8201,1.8181,1.8181,1.8181,1.818,1.818,1.818,1.7791,1.7828,1.7851,1.7907,1.7935,1.7977,1.8047,1.8077,1.812,1.815,1.8151,1.8188,1.8215,1.822,1.8179,1.8179,1.8179,1.818,1.818,1.7753,1.7769,1.7804,1.7832,1.7903,1.7936,1.7994,1.805,1.8081,1.8097,1.8134,1.8147,1.8166,1.817,1.8175,1.8124,1.8124,1.8124,1.8124,1.7715,1.773,1.7777,1.7819,1.7866,1.7922,1.7961,1.8016,1.8076,1.8098,1.8113,1.8123,1.8125,1.8143,1.8148,1.8153,1.8098,1.8098,1.8098,1.7694,1.7716,1.7739,1.7798,1.7857,1.7907,1.7945,1.7992,1.8064,1.8098,1.8117,1.8118,1.8135,1.8139,1.817,1.8176,1.8186,0,0]},{"header":{"parameterUnit":"m.s-1","parameterCategory":1,"la1":30.2992,"la2":30.254,"lo1":-89.0895,"lo2":-89.0443,"dy":0.0025,"dx":0.0025,"nx":19,"ny":19,"refTime":"2026-04-29T03:00:00:Z","depth":0,"parameterNumber":3,"parameterNumberName":"V-component_of_WINDS"},"data":[0,0,0,5.1168,5.1169,5.1252,5.1253,5.1352,5.1353,0,0,0,0,0,0,0,0,0,0,0,5.1142,5.1143,5.1168,5.117,5.1252,5.1253,5.1352,5.1353,0,0,0,0,0,0,0,0,0,0,0,5.1142,5.1143,5.1144,5.117,5.1252,5.1253,5.1351,5.129,0,0,0,0,0,0,0,0,0,0,5.1211,5.1187,5.1143,5.1144,5.117,5.1252,5.1253,5.1288,5.1294,5.1312,0,5.1331,0,5.1344,5.1359,5.1359,0,0,0,5.1169,5.1182,5.1205,5.1144,5.1171,5.1252,5.1215,5.1291,5.1299,5.1321,5.1333,5.1337,5.1346,5.136,5.136,5.1476,5.1476,0,0,5.1164,5.1156,5.12,5.121,5.1201,5.1212,5.1217,5.1296,5.1306,5.1333,5.1339,5.1347,5.136,5.1361,5.1475,5.1476,0,0,0,5.1152,5.1152,5.1174,5.1206,5.1222,5.1215,5.1221,5.1303,5.1311,5.134,5.1348,5.1361,5.1362,5.1475,5.1476,5.1497,0,0,0,5.1149,5.1145,5.1172,5.1167,5.1221,5.1264,5.1226,5.1306,5.1315,5.1348,5.1361,5.1363,5.1474,5.1475,5.1495,5.1508,0,0,0,5.1137,5.1144,5.1156,5.1167,5.1203,5.1263,5.1276,5.1308,5.132,5.136,5.1363,5.1474,5.1475,5.1494,5.1506,5.1538,0,0,0,5.112,5.1171,5.1156,5.1215,5.1202,5.1277,5.1275,5.1331,5.1367,5.1361,5.1474,5.1476,5.1493,5.1504,5.1536,5.1564,5.1575,0,0,5.1178,5.1177,5.1213,5.1202,5.1279,5.1265,5.1343,5.1382,5.1392,5.1446,5.1449,5.1496,5.1505,5.1537,5.1638,5.1646,0,0,0,5.1228,5.1254,5.1276,5.1313,5.1347,5.1377,5.1407,5.1421,5.1469,5.142,5.1516,5.1522,5.1541,5.1555,5.1562,5.1579,5.1481,5.1481,5.1481,5.1296,5.131,5.137,5.1394,5.143,5.1461,5.1491,5.1515,5.1515,5.1538,5.1554,5.1614,5.163,5.1635,5.1653,5.1569,5.157,5.157,5.157,5.1383,5.1422,5.1425,5.1485,5.1498,5.1546,5.1579,5.1578,5.1623,5.1602,5.1619,5.1595,5.1644,5.1661,5.1571,5.1571,5.1571,5.1571,5.1571,5.1429,5.145,5.1471,5.1528,5.1569,5.159,5.1636,5.1645,5.1653,5.167,5.1689,5.1689,5.169,5.1679,5.1679,5.1679,5.1679,5.1679,5.1679,5.1469,5.1492,5.1531,5.1575,5.1601,5.1636,5.167,5.1694,5.1724,5.1726,5.1726,5.1724,5.1647,5.1628,5.1683,5.1682,5.1682,5.1681,5.1681,5.1552,5.1536,5.1597,5.1624,5.1677,5.1718,5.173,5.178,5.1801,5.1823,5.1819,5.176,5.1758,5.1752,5.1736,5.1815,5.1815,5.1815,5.1815,5.1592,5.1593,5.166,5.1702,5.1744,5.1763,5.1829,5.1856,5.188,5.1894,5.1884,5.1863,5.1857,5.1859,5.185,5.1836,5.1939,5.1939,5.1939,5.1645,5.1651,5.1708,5.1736,5.1778,5.1813,5.1877,5.1923,5.1946,5.1944,5.1905,5.19,5.1867,5.1856,5.1853,5.184,5.1813,0,0]}]]